• In Hungary
  • List of Countries
  • For 7 days
  • Water Temperature
  • Satellite Maps
  • Weather Map
  • News
  • Weather Widgets
  • user-avatar
    Login

    Hourly Weather Perekhresne

    Today, 20 January, Saturday

    Time Temperature Precipitation Wind Pressure Humidity
    00:00 -2°C° 0.4 mm 1 mps 683 mmHg 100%
    01:00 -2°C° 0.3 mm 1 mps 683 mmHg 100%
    02:00 -3°C° 0.2 mm 1 mps 683 mmHg 100%
    03:00 -4°C° 0.1 mm 0 mps 683 mmHg 100%
    04:00 -4°C° 0.1 mm 0 mps 683 mmHg 100%
    05:00 -4°C° 0 mm 0 mps 683 mmHg 100%
    06:00 -4°C° 0 mm 1 mps 683 mmHg 100%
    07:00 -6°C° 0 mm 1 mps 683 mmHg 100%
    08:00 -6°C° 0 mm 1 mps 683 mmHg 100%
    09:00 -7°C° 0 mm 1 mps 682 mmHg 100%
    10:00 -7°C° 0 mm 1 mps 683 mmHg 96%
    11:00 -6°C° 0 mm 1 mps 683 mmHg 89%
    12:00 -3°C° 0 mm 1 mps 683 mmHg 95%
    13:00 -2°C° 0 mm 1 mps 683 mmHg 100%
    14:00 -1°C° 0 mm 1 mps 684 mmHg 93%
    15:00 -1°C° 0 mm 1 mps 684 mmHg 96%
    16:00 -1°C° 0 mm 1 mps 683 mmHg 98%
    17:00 -2°C° 0 mm 1 mps 683 mmHg 91%
    18:00 -4°C° 0 mm 0 mps 683 mmHg 91%
    19:00 -4°C° 0 mm 1 mps 682 mmHg 87%
    20:00 -7°C° 0 mm 2 mps 682 mmHg 85%
    21:00 -7°C° 0 mm 2 mps 682 mmHg 85%
    22:00 -7°C° 0 mm 2 mps 682 mmHg 89%
    23:00 -7°C° 0 mm 2 mps 682 mmHg 95%

    Tomorrow, 21 January, Sunday

    Time Temperature Precipitation Wind Pressure Humidity
    00:00 -9°C° 0 mm 3 mps 682 mmHg 98%
    01:00 -9°C° 0 mm 3 mps 682 mmHg 96%
    02:00 -8°C° 0 mm 2 mps 682 mmHg 94%
    03:00 -8°C° 0 mm 2 mps 682 mmHg 91%
    04:00 -9°C° 0 mm 2 mps 682 mmHg 91%
    05:00 -9°C° 0 mm 2 mps 681 mmHg 92%
    06:00 -9°C° 0 mm 2 mps 681 mmHg 90%
    07:00 -8°C° 0 mm 2 mps 682 mmHg 89%
    08:00 -8°C° 0 mm 2 mps 682 mmHg 89%
    09:00 -8°C° 0 mm 2 mps 682 mmHg 92%
    10:00 -8°C° 0 mm 2 mps 682 mmHg 94%
    11:00 -6°C° 0 mm 1 mps 682 mmHg 98%
    12:00 -3°C° 0 mm 1 mps 682 mmHg 100%
    13:00 -3°C° 0 mm 0 mps 682 mmHg 100%
    14:00 -1°C° 0 mm 1 mps 682 mmHg 100%
    15:00 -1°C° 0 mm 0 mps 682 mmHg 100%
    16:00 -1°C° 0 mm 0 mps 682 mmHg 100%
    17:00 -1°C° 0 mm 0 mps 681 mmHg 100%
    18:00 -1°C° 0 mm 1 mps 681 mmHg 96%
    19:00 -1°C° 0 mm 1 mps 681 mmHg 93%
    20:00 -2°C° 0 mm 1 mps 680 mmHg 89%
    21:00 -2°C° 0 mm 1 mps 680 mmHg 87%
    22:00 -2°C° 0 mm 1 mps 680 mmHg 91%
    23:00 -3°C° 0.4 mm 1 mps 680 mmHg 100%

    Day after tomorrow, 22 January, Monday

    Time Temperature Precipitation Wind Pressure Humidity
    00:00 -3°C° 0.5 mm 1 mps 680 mmHg 100%
    01:00 -3°C° 0.2 mm 1 mps 680 mmHg 100%
    02:00 -3°C° 0.1 mm 1 mps 680 mmHg 100%
    03:00 -3°C° 0.3 mm 1 mps 680 mmHg 100%
    04:00 -4°C° 0.6 mm 1 mps 680 mmHg 100%
    05:00 -6°C° 0.5 mm 2 mps 681 mmHg 100%
    06:00 -6°C° 0.6 mm 2 mps 681 mmHg 100%
    07:00 -6°C° 0.6 mm 1 mps 682 mmHg 100%
    08:00 -7°C° 0.4 mm 2 mps 683 mmHg 100%
    09:00 -6°C° 0.1 mm 1 mps 684 mmHg 100%
    10:00 -4°C° 0 mm 1 mps 684 mmHg 100%
    11:00 -6°C° 0 mm 2 mps 685 mmHg 100%
    12:00 -6°C° 0.1 mm 2 mps 685 mmHg 100%
    13:00 -6°C° 0 mm 2 mps 686 mmHg 100%
    14:00 -6°C° 0 mm 2 mps 686 mmHg 100%
    15:00 -4°C° 0 mm 1 mps 686 mmHg 100%
    16:00 -4°C° 0 mm 1 mps 687 mmHg 100%
    17:00 -6°C° 0 mm 1 mps 687 mmHg 100%
    18:00 -7°C° 0 mm 1 mps 687 mmHg 100%
    19:00 -8°C° 0 mm 1 mps 687 mmHg 100%
    20:00 -9°C° 0 mm 1 mps 688 mmHg 100%
    21:00 -9°C° 0 mm 1 mps 688 mmHg 100%
    22:00 -10°C° 0 mm 1 mps 688 mmHg 100%
    23:00 -10°C° 0 mm 1 mps 688 mmHg 100%

    23 January, Tuesday

    Time Temperature Precipitation Wind Pressure Humidity
    00:00 -10°C° 0 mm 0 mps 688 mmHg 100%
    01:00 -11°C° 0 mm 0 mps 688 mmHg 100%
    02:00 -11°C° 0 mm 0 mps 688 mmHg 100%
    03:00 -11°C° 0 mm 0 mps 688 mmHg 100%
    04:00 -11°C° 0 mm 0 mps 688 mmHg 100%
    05:00 -11°C° 0 mm 0 mps 689 mmHg 100%
    06:00 -11°C° 0 mm 1 mps 689 mmHg 100%
    07:00 -12°C° 0 mm 0 mps 689 mmHg 100%
    08:00 -12°C° 0 mm 0 mps 690 mmHg 100%
    09:00 -12°C° 0 mm 0 mps 690 mmHg 100%
    10:00 -11°C° 0 mm 0 mps 691 mmHg 100%
    11:00 -10°C° 0 mm 0 mps 692 mmHg 100%
    12:00 -9°C° 0 mm 0 mps 693 mmHg 100%
    13:00 -8°C° 0 mm 0 mps 693 mmHg 100%
    14:00 -7°C° 0 mm 0 mps 694 mmHg 100%

    24 January, Wednesday

    Time Temperature Precipitation Wind Pressure Humidity

    25 January, Thursday

    Time Temperature Precipitation Wind Pressure Humidity
    Show more